2026-028A

Last updated on Sun Mar 15 2026 00:02:06 GMT+0000 (Coordinated Universal Time)

1 67756U 26028A 26073.30843850 -.00000093 00000+0 00000+0 0 9999 2 67756 0.4598 290.8469 0003525 43.4051 25.7117 1.00209077 301
UTC large
Height (km)
Speed (km/s)
/
Latitude / Longitude
Inclination (degrees)
Orbital Period (minutes)
Azimuth
Elevation
Range (km)
Doppler Factor

Next 0 passes for location: London (51.5072 / 0.1276)

Sorry there are no passes over London.